This demonstration page uses our WeatherBlox Daily Observations layout. Learn more.

Left ArrowRight Arrow

Hourly Observations for January 28, 2017

Temp ( °F °C ) Dew Point ( °F °C ) Humidity (%) Winds ( mph kmh ) Pressure ( in mb ) Visibility ( mi km ) Precip ( " mm )
12:52 am 00:52 Clear 36 2.2 16 -8.9 44 44 W 12 19 30.05 1018 10 16 0.00 0.00
1:52 am 01:52 Clear 34 1.1 17 -8.3 50 50 W 9 15 30.05 1018 10 16 0.00 0.00
2:52 am 02:52 Clear 32 0 19 -7.2 59 59 W 12 19 30.06 1018 10 16 0.00 0.00
3:52 am 03:52 Clear 32 0 21 -6.1 64 64 WNW 8 13 30.05 1018 10 16 0.00 0.00
4:52 am 04:52 Mostly Cloudy 31 -0.6 22 -5.6 69 69 WNW 10 17 30.06 1018 10 16 0.00 0.00
5:40 am 05:40 Partly Cloudy 30 -1 23 -5 75 75 WNW 10 17 30.15 1021 10 16 0.00 0.00
5:47 am 05:47 Mostly Cloudy 30 -1 23 -5 75 75 WNW 8 13 30.15 1021 10 16 0.00 0.00
5:52 am 05:52 Mostly Cloudy 30 -1.1 23 -5 75 75 WNW 9 15 30.08 1019 10 16 0.00 0.00
6:09 am 06:09 Partly Cloudy 30 -1.1 23 -5 75 75 WNW 9 15 30.15 1021 10 16 0.00 0.00
6:52 am 06:52 Clear 29 -1.7 23 -5 78 78 WNW 7 11 30.08 1019 10 16 0.00 0.00
7:52 am 07:52 Sunny 28 -2.2 23 -5 81 81 W 8 13 30.09 1019 10 16 0.00 0.00
8:52 am 08:52 Sunny 32 0 26 -3.3 79 79 W 12 19 30.09 1019 10 16 0.00 0.00
9:42 am 09:42 Mostly Cloudy 34 1 27 -3 75 75 WNW 13 20 30.15 1021 10 16 0.00 0.00
9:52 am 09:52 Mostly Cloudy 34 1.1 26 -3.3 73 73 W 16 26 30.11 1020 10 16 0.00 0.00
10:07 am 10:07 Partly Cloudy 35 1.7 26 -3.3 70 70 WNW 13 20 30.15 1021 10 16 0.00 0.00
10:36 am 10:36 Mostly Cloudy 36 2 27 -3 70 70 undefined N/A 30.12 1020 10 16 0.00 0.00
10:44 am 10:44 Partly Cloudy 37 3 27 -3 65 65 undefined N/A 30.12 1020 10 16 0.00 0.00
10:52 am 10:52 Mostly Sunny 38 3.3 27 -2.8 65 65 undefined N/A 30.08 1019 10 16 0.00 0.00
11:52 am 11:52 Sunny 42 5.6 28 -2.2 58 58 W 16 26 30.05 1018 10 16 0.00 0.00
12:52 pm 12:52 Sunny 44 6.7 26 -3.3 49 49 W 17 28 30.04 1017 10 16 0.00 0.00
1:52 pm 13:52 Sunny 45 7.2 25 -3.9 46 46 WNW 16 26 30.02 1017 10 16 0.00 0.00
2:52 pm 14:52 Sunny 47 8.3 24 -4.4 41 41 undefined N/A 30.00 1016 10 16 0.00 0.00
3:52 pm 15:52 Sunny 47 8.3 23 -5 39 39 W 17 28 30.00 1016 10 16 0.00 0.00
4:52 pm 16:52 Sunny 46 7.8 23 -5 40 40 W 16 26 30.01 1016 10 16 0.00 0.00
5:52 pm 17:52 Partly Cloudy 45 7.2 23 -5 42 42 W 9 15 30.01 1016 10 16 0.00 0.00
6:52 pm 18:52 Cloudy 45 7.2 24 -4.4 44 44 W 13 20 30.01 1016 10 16 0.00 0.00
7:52 pm 19:52 Cloudy 44 6.7 25 -3.9 47 47 W 8 13 29.99 1016 10 16 0.00 0.00
8:52 pm 20:52 Cloudy 45 7.2 24 -4.4 44 44 WNW 12 19 29.98 1015 10 16 0.00 0.00
9:52 pm 21:52 Cloudy 44 6.7 25 -3.9 47 47 WNW 10 17 29.98 1015 10 16 0.00 0.00
10:52 pm 22:52 Cloudy 43 6.1 25 -3.9 49 49 WNW 7 11 29.97 1015 10 16 0.00 0.00
11:52 pm 23:52 Cloudy 43 6.1 26 -3.3 51 51 W 12 19 29.96 1014 10 16 0.00 0.00

Powered by AerisWeather